Location: Nelson
(41.2830°S, 173.2830°E)
Time: 06:03:47
(UTC+13:00)

Radarsat Rocket - Pass Details

Date: 27 September 2021
Orbit: 933 x 1492 km, 100.6° (Epoch: 23 October)

Event Time Altitude Azimuth Distance (km) Brightness Sun altitude
Rises 05:06:20 0° 66° (ENE) 4,611 8.1 -23.0°
Reaches altitude 10° 05:09:51 10° 78° (ENE) 3,649 7.7 -22.4°
Maximum altitude 05:16:12 24° 126° (SE) 2,725 7.1 -21.3°
Drops below altitude 10° 05:22:24 10° 173° (S) 3,570 7.3 -20.2°
Sets 05:25:47 0° 186° (S) 4,490 7.6 -19.6°
